Location: Moy Burn
(57.3833°N, 4.0667°W)
Time: 11:47:40
(UTC+00:00)

USA 238 DEB - Pass Details

Date: 08 August 2020
Orbit: 1006 x 1206 km, 63.4° (Epoch: 17 September)

Event Time Altitude Azimuth Distance (km) Brightness Sun altitude
Rises 22:20:33 0° 207° (SSW) 3,753 6.2 -12.6°
Reaches altitude 10° 22:23:10 10° 203° (SSW) 2,822 5.6 -12.8°
Maximum altitude 22:29:33 52° 129° (SE) 1,303 3.8 -13.2°
Drops below altitude 10° 22:36:16 10° 56° (NE) 2,960 6.1 -13.6°
Sets 22:39:03 0° 52° (NE) 3,951 6.8 -13.8°
